Lid_Strength_Index
7 6 7 7 7 6 7 8 7 7 7 9 9 8 8 8 8 7 7 7 7 7 6 6 5 5 5 5 5 5 5 5 8 6 5 5 5 4 4 3 3 3 3
7 8 8 8 8 8 9 9 9 9 10 9 8 8 9 8 8 8 8 8 7 7 6 5 5 5 6 6 7 7 7 7 8 10 8 7 6 6 5 5 5 4 4
9 9 9 9 9 9 9 9 10 10 9 9 9 9 8 8 8 8 8 8 7 6 6 6 6 7 8 8 8 8 8 8 9 10 9 8 7 6 6 6 5 4 4
9 10 10 10 9 9 9 10 10 10 10 10 9 9 9 9 9 9 8 8 7 7 6 7 7 7 8 8 8 8 9 9 9 10 10 10 9 8 7 7 7 5 5
10 11 11 10 10 9 9 10 9 9 9 9 9 9 10 9 9 8 8 8 8 8 8 8 8 7 7 7 8 9 9 9 10 10 11 10 10 9 9 8 8 7 6
11 11 11 10 10 10 10 10 9 9 9 9 10 10 11 10 10 8 8 8 8 9 9 9 8 8 8 7 8 8 8 9 10 11 11 11 10 10 9 8 8 8 8
10 11 11 10 10 11 10 9 9 10 10 10 10 11 11 11 10 9 8 9 9 9 9 9 9 8 8 9 9 9 9 8 8 9 10 10 10 9 8 9 8 7 7
11 11 10 11 11 10 10 10 10 10 10 11 11 11 12 11 10 10 9 9 9 9 8 9 9 9 9 9 10 10 9 9 8 9 8 8 8 7 7 6 6 6 5
11 11 11 10 11 11 11 11 11 11 10 11 12 12 12 11 10 10 10 10 10 9 8 8 9 10 10 10 11 11 10 9 9 8 7 8 8 8 7 5 6 6 7
13 12 12 12 12 12 12 13 12 12 12 12 12 12 11 11 10 10 10 10 10 10 8 9 9 10 11 11 11 11 12 11 11 10 8 7 6 6 6 5 5 6 6
12 13 12 13 13 13 13 13 13 13 13 13 13 12 11 10 10 10 10 10 10 11 11 11 10 11 11 12 12 12 12 11 10 10 9 8 7 6 5 5 5 5 6
13 13 14 14 13 14 14 14 14 14 14 14 13 12 11 11 10 10 11 10 9 11 11 11 11 11 12 12 12 13 12 11 10 11 11 9 9 8 5 6 5 5 4
13 14 14 14 15 15 15 15 15 14 15 14 13 13 13 12 11 11 11 11 10 10 10 11 11 12 12 12 13 13 12 12 12 12 12 11 9 7 5 6 5 5 5
14 15 15 15 15 15 14 14 14 14 14 14 14 14 13 12 12 11 12 11 10 11 11 12 12 13 13 13 13 13 13 12 13 13 13 11 9 8 6 6 7 7 7
15 15 15 15 14 14 14 13 13 13 13 13 13 13 12 13 12 11 12 12 11 12 12 12 14 15 14 14 14 14 13 13 14 13 13 12 11 10 7 6 7 7 8
15 15 14 14 13 13 13 12 11 11 11 11 11 11 11 11 10 10 11 12 12 12 13 14 15 15 16 15 15 15 14 14 14 14 14 13 12 11 9 7 7 8 8
14 13 13 13 13 12 12 12 12 11 10 11 11 10 11 11 11 11 11 12 12 13 14 15 16 16 16 16 16 15 15 14 14 15 14 14 13 11 9 8 8 8 8
12 12 13 13 13 13 13 13 12 12 12 12 11 10 11 11 11 12 12 12 14 14 15 16 17 17 16 17 17 16 15 15 14 15 15 14 13 12 11 9 9 9 9
12 13 13 13 13 13 13 13 13 13 12 12 12 11 11 11 11 12 12 13 15 15 16 17 17 17 17 17 17 16 16 16 15 15 15 15 14 13 13 10 9 11 11
12 12 12 12 13 13 13 13 13 13 13 13 13 13 12 11 12 13 13 14 15 16 16 17 17 17 17 17 17 17 16 16 16 15 15 15 14 13 13 11 11 10 10
12 13 13 13 13 13 13 13 13 13 13 13 13 13 14 12 12 13 13 14 15 16 16 16 17 17 17 17 17 17 16 16 16 16 15 14 14 14 12 11 11 10 10
13 13 13 14 13 13 13 13 13 13 13 13 13 13 14 12 12 12 13 14 14 14 15 16 16 17 17 17 16 17 17 17 16 16 15 15 13 12 12 12 12 11 11
13 13 14 14 13 13 13 13 13 13 13 13 13 13 13 13 13 12 13 13 13 14 14 15 16 16 16 16 16 16 17 17 16 15 15 15 14 14 12 11 11 12 12
13 13 13 13 13 13 13 13 13 13 13 13 13 14 14 13 13 13 13 13 13 14 14 15 15 15 15 15 15 15 16 16 15 15 14 14 14 14 13 12 11 11 11
13 13 13 12 13 13 13 13 13 13 13 13 14 14 14 14 14 14 14 13 13 14 14 14 14 15 15 14 14 15 15 16 15 16 14 14 13 13 13 13 12 11 11
13 12 13 12 13 13 12 13 13 13 13 13 13 13 14 14 14 14 14 14 14 14 14 14 14 14 14 15 15 15 15 15 15 15 14 13 14 13 13 13 12 12 12